Location: Table Mountain
(47.2500°N, 120.5778°W)
Time: 04:41:29
(UTC-07:00)

Tiangong 1 - Pass Details

Date: 11 October 2017
Orbit: 292 x 319 km, 42.8° (Epoch: 22 October)

Event Time Altitude Azimuth Distance (km) Brightness Sun altitude
Rises 19:32:36 0° 261° (W) 2,038 6.5 -12.9°
Reaches altitude 10° 19:34:44 10° 249° (WSW) 1,202 4.7 -13.2°
Maximum altitude 19:37:07 28° 187° (S) 617 2.1 -13.6°
Enters shadow 19:38:07 21° 147° (SSE) 753 2.2 -13.8°
